This is the latest recevied weather packets stored in our database for station/object VK5GR-12. If no packets are shown the sender has not sent any weather packets the latest 10 day(s).
| Time | Temp. | Humidity | Pressure | Rain* | Wind** | Luminosity | Snow |
|---|---|---|---|---|---|---|---|
| 1778160340 | 12.78° C | 77% | 1030.3 hPa | 0 mm | - | 0 W/m² | - |
| 1778159437 | 12.78° C | 77% | 1030.4 hPa | 0 mm | - | 0 W/m² | - |
| 1778158535 | 12.78° C | 77% | 1030.4 hPa | 0 mm | - | 0 W/m² | - |
| 1778157632 | 12.22° C | 76% | 1030.5 hPa | 0 mm | - | 0 W/m² | - |
| 1778156728 | 12.22° C | 76% | 1030.5 hPa | 0 mm | - | 0 W/m² | - |
| 1778155827 | 12.22° C | 76% | 1030.8 hPa | 0 mm | - | 0 W/m² | - |
| 1778154922 | 12.78° C | 75% | 1030.6 hPa | 0 mm | - | 0 W/m² | - |
| 1778154018 | 12.78° C | 73% | 1030.9 hPa | 0 mm | - | 0 W/m² | - |
| 1778153115 | 12.78° C | 70% | 1030.7 hPa | 0 mm | - | 0 W/m² | - |
| 1778152211 | 12.78° C | 69% | 1030.3 hPa | 0 mm | - | 0 W/m² | - |
| 1778151307 | 12.78° C | 69% | 1030.4 hPa | 0 mm | - | 0 W/m² | - |
| 1778150402 | 12.78° C | 68% | 1030.6 hPa | 0 mm | - | 0 W/m² | - |
| 1778149498 | 13.33° C | 66% | 1030.5 hPa | 0 mm | - | 0 W/m² | - |
| 1778148592 | 12.78° C | 66% | 1030.7 hPa | 0 mm | - | 0 W/m² | - |
| 1778147691 | 12.78° C | 68% | 1030.4 hPa | 0 mm | - | 0 W/m² | - |
| 1778146787 | 12.78° C | 68% | 1030.4 hPa | 0 mm | - | 0 W/m² | - |
| 1778145884 | 12.78° C | 66% | 1030.2 hPa | 0 mm | - | 0 W/m² | - |
| 1778144980 | 13.33° C | 66% | 1030.1 hPa | 0 mm | - | 0 W/m² | - |
| 1778144076 | 13.33° C | 66% | 1030.1 hPa | 0 mm | - | 0 W/m² | - |
| 1778143172 | 12.78° C | 66% | 1030 hPa | 0 mm | - | 0 W/m² | - |
| 1778142273 | 12.78° C | 67% | 1029.8 hPa | 0 mm | - | 0 W/m² | - |
| 1778141369 | 12.78° C | 66% | 1029.8 hPa | 0 mm | - | 1 W/m² | - |
| 1778140468 | 13.33° C | 63% | 1029.9 hPa | 0 mm | - | 5 W/m² | - |
| 1778139566 | 13.89° C | 63% | 1030 hPa | 0 mm | - | 14 W/m² | - |
| 1778138662 | 13.89° C | 62% | 1029.8 hPa | 0 mm | - | 18 W/m² | - |
* Rain latest hour (hover to see other rain measurements)
** Current wind speed in m/s (hover to see current wind gust speed)